User: anonymous   Login
Location: Twentynine Palms Airport
(34.1316°N, 115.9458°W)
Time: 08:31:16
(UTC-07:00)
Language:

Oscar 19 - Orbit

View from above orbital plane
View from above orbital plane
View from above satellite
View from above satellite

Ground track
Ground track

The orbit data is extracted from the following two-line orbital elements,

1 20442U 90005G   15089.42741782  .00000300  00000-0  12589-3 0  9995
2 20442 098.5066 026.5969 0012380 026.8048 333.3773 14.32706940315663
Epoch (UTC): 30 March 2015 10:15:28
Eccentricity: 0.0012380
inclination: 98.5066°
perigee height: 774 km
apogee height: 791 km
right ascension of ascending node: 26.5969°
argument of perigee: 26.8048°
revolutions per day: 14.32706940
mean anomaly at epoch: 333.3773°
orbit number at epoch: 31566

The dashed part of the orbit path shows where the satellite is in the earth's shadow,  

DLR